map of FEZ home
FEZ - Airport
Location
City:  Fez, Fès-Dar-Dbibegh, Morocco
Near (Alt.):Fes
Name:Saïss Airport
ICAO:GMFF
IATA:FEZ

Details
Type:Airport (Aerodrome, Airfield)
Use:Public/Civil, International (customs port of entry)
Latitude:33°55'38"N (33.927261)
Longitude:4°58'41"W (-4.977957)
Datum:WGS 1984
Elevation:1900 ft (579 m)
Variation:1.16°W (WMM2015 magnetic declination)
0.11° annual change
Runways:1
Longest:10499 × 148 ft (3200 × 45 m), paved

Time
Time Zone:UTC+0
Local Time:

Weather
METAR:GMFF 281800Z 05021G32KT 9999 FEW033 24/10 Q1017 NOSIG
TAF:GMFF 281700Z 2818/2924 06014KT CAVOK
BECMG 2910/2914 FEW033
BECMG 2918/2922 CAVOK

Related Locations
Nearby:
Farthest:KKE: 12322 mi / 19830 km
Kerikeri/Bay of Islands, NZ

Find:

   beyond  
but within

Other Information
Maps:
NOTAMs:
Links:
Sources:

  
flag of Morocco   

Sectional Chart

Flight Planning
at skyvector.com

Satellite Image

Google Maps Satellite view

 

Copyright © 2004-2016 Karl L. Swartz. All rights reserved.
The Great Circle Mapper name and logo are trademarks of the Great Circle Mapper.
All other trademarks mentioned herein belong to their respective owners.
Please see credits for attibutions and further copyright information.

  Follow gcmap on Facebook Follow gcmap on Twitter Follow gcmap on Google+ GCmap on LinkedIn

hCard Microformat

Geo Microformat